Regional Weather Roundup
Issued by NWS Newport/Morehead, NC

Current Version | Previous Version | Graphics & Text | Print | Product List | Glossary Off
Versions: 1 2 3 4 5 6 7 8 9 10 11 12 13 14 15 16 17 18 19 20 21 22 23 24 25 26 27 28 29 30 31 32 33 34 35 36 37 38 39 40 41 42 43 44 45 46 47 48 49 50

000
ASUS42 KMHX 300510
RWRMHX
WEATHER ROUNDUP FOR EASTERN NORTH CAROLINA
NATIONAL WEATHER SERVICE NEWPORT/MOREHEAD CITY NC
1200 AM EST FRI JAN 30 2015

NOTE: "FAIR" INDICATES FEW OR NO CLOUDS BELOW 12,000 FEET
WITH NO SIGNIFICANT WEATHER AND/OR OBSTRUCTIONS TO VISIBILITY

NCZ015>017-031-032-045>047-102-103-300600-
NORTH COAST

CITY           SKY/WX    TMP DP  RH WIND       PRES   REMARKS
EDENTON        MOCLDY    41  31  68 S7        30.08F
ELIZABETH CITY CLOUDY    41  30  65 S9        30.07F
KITTY HAWK     CLOUDY    41  32  69 SW3       30.07F
MANTEO         CLOUDY    43  34  70 S6        30.08F

$$

NCZ045>047-081-094-103-104-300600-
CENTRAL COAST

CITY           SKY/WX    TMP DP  RH WIND       PRES   REMARKS
FRISCO         LGT RAIN  50  43  77 W12       30.10F
SWANQUARTER    NOT AVBL

$$

NCZ095-097-098-100-101-300600-
SOUTHERN COAST

CITY           SKY/WX    TMP DP  RH WIND       PRES   REMARKS
BEAUFORT       CLOUDY    54  45  71 SW12      30.10S
CEDAR ISLAND   NOT AVBL
JACKSONVILLE   CLOUDY    49  39  68 W7        30.10F
PINEY ISLAND     N/A    N/A N/A N/A MISG      30.09S
WILMINGTON     LGT RAIN  47  42  83 W6        30.11F


$$

NCZ011>013-027>030-043-044-078>080-089-090>093-098-300600-
COASTAL PLAIN

CITY           SKY/WX    TMP DP  RH WIND       PRES   REMARKS
AHOSKIE        CLEAR     35  25  65 S7        30.04F
CLINTON        MOCLDY    45  37  74 CALM      30.09F
ELIZABETHTOWN  CLOUDY    49  40  71 SW8       30.10F
GOLDSBORO      FAIR      42  40  91 CALM      30.06F
GREENVILLE     CLEAR     37  30  75 S5        30.09F
HAVELOCK       CLOUDY    50  41  71 SW8       30.10F
KENANSVILLE    CLOUDY    45  37  72 CALM      30.10F
KINSTON        MOCLDY    44  35  70 S6        30.09F
NEW BERN       LGT RAIN  47  38  71 S3        30.10F
RICHLANDS      CLOUDY    45  36  70 SW6       30.11F
ROCKY MOUNT    CLEAR     38  25  59 S7        30.05F
WASHINGTON     CLOUDY    42  31  66 CALM      30.09F
WHITEVILLE     CLOUDY    49  41  73 SW7       30.11F

$$

AMZ130-135-150-152-154-156-158-170-250-252-270-ANZ085-086-088-633-658-670-300600-
MARINE OBSERVATIONS

STATION/POSITION TIME  TEMP    WIND        PRES    WAVE   SWELL
                       AIR SEA DIR/SP/G            HT/PER HT/PER
                 (UTC) (F)     (DEG/KT/KT) (MB)    (FT/S) (FT/S)
CHESAPEAKE LIGHT 0400   41     200/ 21/ 23 1018.4
64 E VA BEACH    0500   46 49  220/ 17/ 21 1018.1    4/ 5   2/11
DUCK             0500   42 43  200/  7/  9 1017.7
2 E DUCK         0500      42                N/A     3/11   2/11
10 NE DUCK       0500      44                N/A     3/12   2/12
OREGON INLET     0500   42 41  200/  4/  4 1018.9
13E OREGON INLT  0500      43                N/A     3/12   2/12
HATTERAS CG      0500   51 44  230/  9/ 13 1019.3
DIAMOND BUOY     0500   60 71  230/ 25/ 29 1018.1    5/ 4   3/ 8
17 S OCRACOKE    NOT AVBL
CAPE LOOKOUT     0400   55     230/ 10/ 13 1019.6
BEAUFORT LAB     0500   54 46  230/  5/ 11 1018.2
27 SE WRIGHTSVLE NOT AVBL
5 SE WRIGHTSVLE  0400   54 52  210/ 14/ 17 1019.2
225 S CAPE HAT   0434   60 72  240/ 12/ 16 1022.8    5/ 9   5/ 9
41 SE CHARLESTON 0500   63 68  230/ 21/ 27 1020.2    4/ 4   2/10

$$



USA.gov is the U.S. government's official web portal to all federal, state and local government web resources and services.